Location: Argonnex
(45.9500°N, 6.1333°E)
Time: 13:59:01
(UTC+00:00)

Cosmos 2266 Rocket - Pass Details

Date: 11 August 2024
Orbit: 933 x 1007 km, 82.9° (Epoch: 14 September)

Event Time Altitude Azimuth Distance (km) Brightness Sun altitude
Rises 00:18:04 0° 358° (N) 3,602 8.1 -28.3°
Reaches altitude 10° 00:20:48 10° 7° (N) 2,653 7.2 -28.2°
Maximum altitude 00:26:17 35° 72° (ENE) 1,477 5.1 -28.0°
Enters shadow 00:28:33 27° 112° (ESE) 1,739 5.2 -27.9°
